Weather History for Andalusia, AL

Change the Weather History Date:

Thursday, April 10, 2014

  Actual Average (KCEW) Record (KCEW)
Temperature  
Mean Temperature 63 °F -  
Max Temperature 81 °F 77 °F 90 °F (1999)
Min Temperature 45 °F 49 °F 38 °F (1976)
Degree Days  
Heating Degree Days 2    
Growing Degree Days 13 (Base 50)    
Moisture  
Dew Point 41 °F    
Average Humidity 50    
Maximum Humidity 86    
Minimum Humidity 20    
Precipitation  
Precipitation 0.00 in - - ()
Sea Level Pressure  
Sea Level Pressure 30.22 in    
Wind  
Wind Speed 2 mph (SSW)    
Max Wind Speed 8 mph    
Max Gust Speed 18 mph    
Visibility 10 miles    
Events      
Averages and records for this station are not official NWS values.
T = Trace of Precipitation, MM = Missing Value Source: NWS Daily Summary

Daily Weather History Graph

Daily Weather History Graph

Search for Another Location

Airport:

Trip Planner

Search our weather history database for the weather conditions in past years. The results will help you decide how hot, cold, wet, or windy it might be!

Date:

Astronomy

Apr. 10, 2014 Rise Set
Actual Time 6:23 AM CDT 7:10 PM CDT
Civil Twilight 5:58 AM CDT 7:35 PM CDT
Nautical Twilight 5:29 AM CDT 8:04 PM CDT
Astronomical Twilight 4:59 AM CDT 8:34 PM CDT
Moon 3:09 PM CDT (4/10) 3:29 AM CDT (4/10)
Length of Visible Light 13h 36m
Length of Day
12h 47m
Waxing Gibbous, 80% of the Moon is Illuminated
Apr 10
Waxing Gibbous
Apr 15
Full
Apr 22
Last Quarter
Apr 29
New
May 6
First Quarter

Hourly Weather History & Observations

Time (CDT) Temp. Dew Point Humidity Pressure Visibility Wind Dir Wind Speed Gust Speed Precip Events Conditions
12:56 AM 50.0 °F 43.0 °F 77% 30.20 in 10.0 mi Calm Calm - N/A   Clear
1:56 AM 48.0 °F 44.1 °F 86% 30.19 in 10.0 mi Calm Calm - N/A   Clear
2:56 AM 48.0 °F 42.1 °F 80% 30.19 in 10.0 mi Calm Calm - N/A   Clear
3:56 AM 46.9 °F 42.1 °F 83% 30.19 in 10.0 mi Calm Calm - N/A   Clear
4:56 AM 46.0 °F 41.0 °F 83% 30.20 in 9.0 mi Calm Calm - N/A   Clear
5:56 AM 45.0 °F 39.9 °F 82% 30.23 in 10.0 mi Calm Calm - N/A   Clear
6:56 AM 46.9 °F 42.1 °F 83% 30.25 in 10.0 mi Calm Calm - N/A   Clear
7:56 AM 55.0 °F 46.9 °F 74% 30.27 in 10.0 mi Calm Calm - N/A   Clear
8:56 AM 64.9 °F 43.0 °F 45% 30.27 in 10.0 mi Calm Calm - N/A   Clear
9:56 AM 70.0 °F 42.1 °F 36% 30.28 in 10.0 mi SE 4.6 mph - N/A   Clear
10:56 AM 73.9 °F 36.0 °F 25% 30.28 in 10.0 mi Calm Calm - N/A   Clear
11:56 AM 75.9 °F 37.0 °F 24% 30.26 in 10.0 mi South 3.5 mph - N/A   Clear
12:56 PM 77.0 °F 37.0 °F 24% 30.24 in 10.0 mi ESE 6.9 mph - N/A   Clear
1:56 PM 79.0 °F 35.1 °F 20% 30.22 in 10.0 mi West 6.9 mph - N/A   Clear
2:56 PM 80.1 °F 37.0 °F 21% 30.19 in 10.0 mi Variable 3.5 mph - N/A   Clear
3:56 PM 81.0 °F 37.0 °F 21% 30.17 in 10.0 mi South 6.9 mph - N/A   Clear
4:56 PM 80.1 °F 37.0 °F 21% 30.17 in 10.0 mi SW 8.1 mph - N/A   Clear
5:56 PM 78.1 °F 37.9 °F 24% 30.18 in 10.0 mi WSW 6.9 mph 18.4 mph N/A   Clear
6:56 PM 72.0 °F 39.0 °F 30% 30.19 in 10.0 mi Variable 6.9 mph - N/A   Clear
7:56 PM 66.9 °F 39.9 °F 37% 30.20 in 10.0 mi Variable 4.6 mph - N/A   Clear
8:56 PM 64.0 °F 41.0 °F 43% 30.21 in 10.0 mi SSW 4.6 mph - N/A   Clear
9:56 PM 62.1 °F 44.1 °F 52% 30.23 in 10.0 mi Calm Calm - N/A   Clear
10:56 PM 60.1 °F 46.0 °F 60% 30.23 in 10.0 mi Calm Calm - N/A   Clear
11:56 PM 55.0 °F 46.9 °F 74% 30.23 in 10.0 mi Calm Calm - N/A   Clear